www.pogodaiklimat.ru

Погода и климат >> Архив погоды >> Австралия >> Северная территория >> Аэропорт Грут-Айленд


ПОГОДА в Аэропорту Грут-Айленд

  • Прогноз погоды в Аэропорту Грут-Айленд
  • Монитор погоды в Аэропорту Грут-Айленд

АРХИВ ПОГОДЫ в Аэропорту Грут-Айленд

Время (UTC), дата Ветер
(напр.,м/с)
 
Видим.   Явления Облачность Т
(С)
Тd
(С)
f
(%)
Тe
(С)
Тes
(С)
Комфортность P
(гПа)
Po
(гПа)
Тmin
(С)
Tmax
(С)
R
(мм)
R24
(мм)
S
(см)
17 12.06 В 2 н/о н/о +20.5 +20.2 98 +26 +26 душно 1013.3 1011.7
20 12.06 штиль 0 н/о 6/6 <50 м
[]
+17.8 +17.3 97 +18 +18 1013.0 1011.4
23 12.06 В 2 н/о н/о +22.1 +21.8 98 +29 +29 очень
душно
1014.8 1013.2
02 13.06 В 6 н/о 3/3 1000 м
[]
+28.9 +17.7 51 +33 +33 очень
душно
1015.0 1013.4 +17.8
05 13.06 В 5 н/о 10/10 1000 м
[]
+29.7 +19.1 53 +35 +35 очень
душно
1012.2 1010.6
08 13.06 В 5 н/о 4/4 1000 м
[]
+27.5 +19.3 61 +33 +33 очень
душно
1012.6 1011.0
11 13.06 ЮВ 2 н/о н/о +23.0 +21.6 92 +31 +31 очень
душно
1014.6 1013.0
14 13.06 штиль 0 н/о н/о +19.9 +19.1 95 +23 +23 комфорт 1014.4 1012.8 +30.5
17 13.06 штиль 0 100 м ливневой дождь 9/9 <50 м
[]
+17.9 +17.4 97 +18 +18 1013.8 1012.2
20 13.06 штиль 0 н/о 8/8 <50 м
[]
+17.1 +16.9 99 +17 +17 1013.3 1011.7
23 13.06 штиль 0 н/о в посл. час дождь со снегом {туман} 3/3 50 м
[]
+20.9 +20.7 99 +26 +26 душно 1015.1 1013.5 0.2
02 14.06 ЮВ 4 н/о 3/3 1500 м
[]
+29.3 +18.7 53 +34 +34 очень
душно
1014.2 1012.6 +16.7
05 14.06 В 5 н/о 1/1 1000 м
[]
+29.3 +18.7 53 +34 +34 очень
душно
1011.7 1010.1
08 14.06 ЮВ 3 н/о 1/1 1000 м
[]
+26.1 +21.1 74 +33 +33 очень
душно
1012.2 1010.6
11 14.06 В 1 н/о н/о +22.7 +20.8 89 +30 +30 очень
душно
1013.5 1011.9
14 14.06 штиль 0 н/о н/о +19.6 +18.6 94 +22 +22 комфорт 1013.4 1011.8 +31.0
17 14.06 штиль 0 н/о н/о +18.1 +17.5 96 +18 +18 1012.6 1011.0
20 14.06 штиль 0 н/о 1/1 1500 м
[]
+18.1 +17.5 96 +18 +18 1013.0 1011.4
23 14.06 С 2 н/о 9/0 2000 м
[]
+22.6 +22.1 97 +30 +30 очень
душно
1014.6 1013.0
02 15.06 В 6 н/о н/о +30.0 +18.8 51 +35 +35 очень
душно
1014.1 1012.5 +17.3
05 15.06 В 5 н/о н/о +28.7 +18.8 55 +34 +34 очень
душно
1011.9 1010.3
08 15.06 В 3 н/о н/о +26.5 +20.1 68 +33 +33 очень
душно
1012.6 1011.0
11 15.06 ЮВ 3 н/о 5/0 2000 м
[]
+23.7 +21.6 88 +30 +30 очень
душно
1014.5 1012.9
14 15.06 В 2 н/о н/о +21.4 +20.7 96 +27 +27 душно 1014.5 1012.9 +30.7
17 15.06 В 2 н/о н/о +19.2 +18.5 96 +22 +22 комфорт 1013.6 1012.0
20 15.06 штиль 0 9000 м 1/1 50 м
[]
+17.7 +17.2 97 +18 +18 1013.4 1011.8
23 15.06 штиль 0 н/о н/о +22.7 +21.9 95 +30 +30 очень
душно
1015.2 1013.6
02 16.06 В 4 н/о н/о +29.9 +16.0 43 +33 +33 душно 1015.1 1013.5 +17.4
05 16.06 В 5 н/о н/о +30.6 +14.3 37 +32 +32 жарко 1012.5 1010.9
08 16.06 ЮВ 3 н/о 3/3 600 м
[]
+26.8 +19.7 65 +33 +33 очень
душно
1013.3 1011.7
11 16.06 ЮВ 2 н/о н/о +22.4 +20.5 89 +29 +29 очень
душно
1014.9 1013.3
14 16.06 штиль 0 н/о н/о +19.2 +18.2 94 +21 +21 комфорт 1015.0 1013.4 +32.0
17 16.06 штиль 0 н/о н/о +17.7 +17.1 96 +18 +18 1014.5 1012.9
20 16.06 штиль 0 н/о 5/0 2000 м
[]
+17.0 +16.7 98 +17 +17 1014.6 1013.0
23 16.06 Ю 3 н/о н/о +24.2 +21.9 87 +31 +31 очень
душно
1016.0 1014.4
02 17.06 ЮВ 5 н/о 6/6 1000 м
[]
+27.7 +18.4 57 +33 +33 очень
душно
1015.8 1014.2 +16.9
05 17.06 ЮВ 5 н/о н/о +28.4 +17.9 53 +33 +33 очень
душно
1013.7 1012.1
08 17.06 ЮВ 3 н/о н/о +25.1 +19.0 69 +30 +30 душно 1014.0 1012.4
11 17.06 ЮВ 2 н/о н/о +21.9 +18.5 81 +27 +27 душно 1015.8 1014.2
14 17.06 ЮВ 2 н/о н/о +21.2 +18.6 85 +26 +26 душно 1015.9 1014.3 +28.9
17 17.06 ЮВ 2 н/о н/о +21.2 +18.9 87 +26 +26 душно 1015.0 1013.4
20 17.06 ЮВ 3 н/о н/о +21.1 +18.7 86 +25 +25 комфорт 1014.8 1013.2
23 17.06 ЮВ 4 н/о н/о +24.5 +18.4 69 +29 +29 душно 1016.4 1014.7
02 18.06 ЮВ 4 н/о н/о +27.0 +15.1 48 +30 +30 душно 1015.8 1014.2 +19.7
05 18.06 ЮВ 5 н/о н/о +26.1 +13.6 46 +28 +28 жарко 1014.4 1012.8
08 18.06 ЮВ 5 н/о н/о +23.5 +13.7 54 +26 +26 жарко 1015.0 1013.4
11 18.06 В 3 н/о н/о +21.1 +14.5 66 +24 +24 комфорт 1015.7 1014.1
14 18.06 ЮВ 2 н/о 9/0 2000 м
[]
+19.0 +13.2 69 +21 +21 комфорт 1015.9 1014.3 +27.8
17 18.06 штиль 0 н/о н/о +17.8 +12.3 70 +18 +18 1015.2 1013.6
20 18.06 Ю 2 н/о 1/0 2000 м
[]
+16.6 +13.3 81 +17 +17 1015.1 1013.5
23 18.06 ЮВ 3 н/о н/о +23.1 +13.6 55 +26 +26 жарко 1016.5 1014.8
02 19.06 ЮВ 4 н/о н/о +25.7 +14.2 49 +28 +28 жарко 1015.8 1014.2 +15.6
05 19.06 ЮВ 4 н/о 1/1 1000 м
[]
+25.8 +15.8 54 +29 +29 душно 1013.3 1011.7
08 19.06 Ю 3 н/о н/о +22.7 +15.5 64 +27 +27 душно 1014.3 1012.7
11 19.06 ЮВ 2 н/о н/о +19.8 +15.4 76 +23 +23 комфорт 1015.8 1014.2
14 19.06 ЮВ 2 н/о н/о +17.3 +15.5 89 +18 +18 1015.4 1013.8 +26.8

 

Местоположение метеостанции Аэропорт Грут-Айленд (Северная территория, Австралия): широта -13.98 долгота 136.47 высота над уровнем моря 16 м.

В архиве по умолчанию представлена погода в Аэропорту Грут-Айленд за последнюю неделю. Архивные данные за месяц целиком и за предыдущие месяцы, начиная с января 2011 года, Вы можете получить, выбрав интересующий диапазон дат из раскрывающегося списка и нажав кнопку "Ввод!".


*Определитесь, кто Вы:
робот инопланетянин человек

Внимание! Время в таблицах - всемирное. Для получения местного времени необходимо прибавить поправку, которая равна 9.5 ч.

Смотрите также архив погоды в соседних городах и на ближайших метеорологических станциях:

Погода на Острове Северо-восточный (Северная территория, Австралия) (62 км)
Погода в Аэропорту Гоув (Северная территория, Австралия) (193 км)
Погода на Острове Центр (Северная территория, Австралия) (200 км)
Погода в Булман Уимол (Северная территория, Австралия) (234 км)
Погода в Борролооле (Северная территория, Австралия) (234 км)
Погода в Галивинку (Северная территория, Австралия) (241 км)
Погода в Милинджимби (Северная территория, Австралия) (268 км)
Погода в Аэропорту Макартур Ривер Майн (Северная территория, Австралия) (276 км)
Погода в Манингриде (Северная территория, Австралия) (324 км)
Погода на Мысе Уэссел (Северная территория, Австралия) (332 км)

Пояснения к столбцам:

Ветер - указаны скорость ветра в м/с - средняя за 10 мин, порывы в срок и между сроками (в фигурных скобках) и направление, откуда дует ветер: С - северный, СВ - северо-восточный, В - восточный, ЮВ - юго-восточный, Ю - южный, ЮЗ - юго-западный, З - западный, СЗ - северо-западный.
Видимость - горизонтальная дальность видимости в метрах или километрах. При видимости от 1 до 10 км при отсутствии осадков обычно наблюдается дымка, при ухудшении видимости до 1 км и менее - туман. В сухую погоду видимость может ухудшаться дымом, пылью или мглою.
Явления - указаны атмосферные явления, наблюдавшиеся в срок или в последний час перед сроком; фигурными скобками обозначены явления, наблюдавшиеся между сроками (за 1-3 часа до срока); квадратными скобками обозначены град или гололедные отложения с указанием их диаметра в мм.
Облачность - указаны через наклонную черту общая и нижняя облачность в баллах и высота нижней границы облаков в метрах; квадратными скобками обозначены формы облаков: Ci - перистые, Cs - перисто-слоистые, Cc - перисто-кучевые, Ac - высококучевые, As - высокослоистые, Sc - слоисто-кучевые, Ns - слоисто-дождевые, Cu - кучевые, Cb - кучево-дождевые. Подробнее классификацию облаков см. в Атласе облаков (PDF).
T - Температура воздуха - температура, измеренная на высоте 2 м над землей.
Td - Температура точки росы - температура, при понижении до которой содержащийся в воздухе водяной пар достигнет насыщения.
f - Относительная влажность воздуха - влажноcть воздуха, измеренная на высоте 2 м над землей.
Te - Эффективная температура - температура, которую ощущает одетый по сезону человек в тени. Характеристика душности погоды. При расчете учитывается влияние влажности воздуха и скорости ветра на теплоощущения человека.
Tes - Эффективная температура на солнце - температура, которую ощущает человек, с поправкой на солнечный нагрев. Характеристика знойности погоды. Зависит от высоты солнца над горизонтом, облачности и скорости ветра. Ночью, в пасмурную погоду, а также при ветре 12 м/с и более поправка равна нулю.
P - Атмосферное давление - приведенное к уровню моря атмосферное давление.
Po - Атмосферное давление - измеренное на уровне метеостанции атмосферное давление.
Tmin - Минимальная температура - минимум температуры воздуха на высоте 2 м над землей.
Tmax - Максимальная температура - максимум температуры воздуха на высоте 2 м над землей.
R - Количество осадков - Количество выпавших осадков за период времени, мм. При наведении курсора мыши на число - период времени, за который выпало указанное количество осадков.
R24 - Количество осадков - Количество выпавших осадков за 24 часа, мм.
S - Снежный покров - Высота снежного покрова, см. При наведении курсора мыши на число - состояние снежного покрова и степень покрытия местности в баллах.